User: anonymous   Login
Location: Unspecified
(0.0000°N, 0.0000°E)
Time: 21:06:46
(UTC+00:00)
Language:

STARLINK-31035 - Orbit

View from above orbital plane
View from above orbital plane
View from above satellite
View from above satellite

Ground track
Ground track

The orbit is defined by the following mean orbital elements,

1 58532U          26145.45654366 +.00000000 +00000-0 +19979-3 0 00001
2 58532  53.1621  53.0081 0001429 121.1410 238.9731 15.30148779    04
Epoch (UTC): 25 May 2026 10:57:25
Eccentricity: 0.0001429
inclination: 53.1621°
perigee height: 474 km
apogee height: 476 km
right ascension of ascending node: 53.0081°
argument of perigee: 121.1410°
revolutions per day: 15.30148779
mean anomaly at epoch: 238.9731°

The dashed part of the orbit path shows where the satellite is in the earth's shadow,  

DLR